SONATE-2

Last updated on Mon Sep 15 2025 00:03:09 GMT+0000 (Coordinated Universal Time)

1 59112U 24043Q 25257.09675912 .00017490 00000+0 45355-3 0 9996 2 59112 97.5250 30.4850 0010958 128.0196 232.2040 15.39016093 85168
UTC large
Height (km)
Speed (km/s)
/
Latitude / Longitude
Inclination (degrees)
Orbital Period (minutes)
Azimuth
Elevation
Range (km)
Doppler Factor

Next 0 passes for location: London (51.5072 / 0.1276)

Sorry there are no passes over London.